Regional Weather Roundup
Issued by NWS

Home | Current Version | Previous Version | Graphics & Text | Print | Product List | Glossary On
Versions: 1 2 3 4 5 6 7 8 9 10 11 12 13 14 15 16 17 18 19 20 21 22 23 24 25 26 27 28 29 30 31 32 33 34 35 36 37 38 39 40 41 42 43 44 45 46 47 48 49 50
000
ASUS45 KCYS 052110
RWRWY

WYOMING REGIONAL WEATHER ROUNDUP
NATIONAL WEATHER SERVICE CHEYENNE WY
300 PM MDT SUN JUL 05 2015

NOTE:  "FAIR" INDICATES FEW OR NO CLOUDS BELOW 12,000 FEET
WITH NO SIGNIFICANT WEATHER AND/OR OBSTRUCTIONS TO VISIBILITY.

WYZ001-052200-
YELLOWSTONE NATIONAL PARK

CITY           SKY/WX    TMP DP  RH WIND       PRES   REMARKS
LK YELLOWSTONE   N/A     61  47  59 MISG      30.25S
W YELLOWSTONE  NOT AVBL

$$
WYZ002>013-054>058-071-098>099-052200-
NORTHERN WYOMING

CITY           SKY/WX    TMP DP  RH WIND       PRES   REMARKS
JACKSON        CLOUDY    64  55  72 SW8       30.16F
CODY           CLOUDY    55  54  94 NE8       30.14R
GREYBULL       LGT RAIN  61  56  83 NW14      30.07R
WORLAND        LGT RAIN  63  58  83 N9        30.09R
SHERIDAN       LGT RAIN  59  55  87 NW14      30.11R FOG
BUFFALO        RAIN      58  56  93 N13       30.13R FOG
GILLETTE       CLOUDY    64  59  83 N13       30.06R
HULETT         RAIN      63  61  94 N8        30.06R
NEWCASTLE      FAIR      79  59  50 N23       29.92R

$$
WYZ014>020-022>026-101>103-052200-
CENTRAL WYOMING

CITY           SKY/WX    TMP DP  RH WIND       PRES   REMARKS
BIG PINEY      LGT RAIN  63  51  65 N3        30.22F
PINEDALE       MOCLDY    61  52  72 NW9       30.23F
DUBOIS         DRIZZLE   57  52  82 CALM      30.22S
LANDER         LGT RAIN  67  58  72 W8        30.11R
RIVERTON       LGT RAIN  68  56  65 N14       30.11R
CASPER         LGT RAIN  66  55  67 N14       30.10R
DOUGLAS        FAIR      69  57  65 N21G29    30.05R

$$
WYZ021-027>030-104>119-052200-
SOUTHERN WYOMING

CITY           SKY/WX    TMP DP  RH WIND       PRES   REMARKS
EVANSTON       PTSUNNY   68  57  68 SW13G20   30.21F
KEMMERER       CLOUDY    63  54  72 W5        30.23F
FORT BRIDGER   MOCLDY    66  61  82 NW5       30.24S
ROCK SPRINGS   RAIN      59  55  87 NW18G25   30.23R
DIXON          DRIZZLE   66  58  77 SW7       30.20F
RAWLINS        CLOUDY    67  52  58 W17       30.17S
SARATOGA       LGT RAIN  63  57  82 SW16      30.19R
LARAMIE        TSTM      56  52  86 SE10      30.22R FOG
CHEYENNE       LGT RAIN  64  57  78 N12       30.07R
TORRINGTON     FAIR      90  55  30 N21G32    29.86R
PINE BLUFFS    MOCLDY    68  61  77 NW10      29.98S THUNDER

$$



USA.gov is the U.S. government's official web portal to all federal, state and local government web resources and services.